Time,TemperatureF,DewpointF,PressureIn,WindDirection,WindDirectionDegrees,WindSpeedMPH,WindSpeedGustMPH,Humidity,HourlyPrecipIn,Conditions,Clouds,dailyrainin,SoftwareType,DateUTC
2013-04-03 00:03:00,57.5,23.8,29.89,NNE,26,2.0,5.0,27,0.00,,---,0.00,VWS V14.01,2013-04-03 07:03:00,
2013-04-03 00:08:00,57.6,23.9,29.90,North,5,1.0,4.0,27,0.00,,---,0.00,VWS V14.01,2013-04-03 07:08:00,
2013-04-03 00:13:00,57.7,24.0,29.89,NE,50,2.0,4.0,27,0.00,,---,0.00,VWS V14.01,2013-04-03 07:13:00,
2013-04-03 00:18:00,58.2,23.5,29.90,NNE,30,3.0,4.0,26,0.00,,---,0.00,VWS V14.01,2013-04-03 07:18:00,
2013-04-03 00:23:00,57.9,24.1,29.90,NE,44,3.0,4.0,27,0.00,,---,0.00,VWS V14.01,2013-04-03 07:23:00,
2013-04-03 00:28:00,58.4,23.7,29.90,NNE,30,2.0,4.0,26,0.00,,---,0.00,VWS V14.01,2013-04-03 07:28:00,
2013-04-03 00:33:00,58.5,23.8,29.90,NE,37,2.0,4.0,26,0.00,,---,0.00,VWS V14.01,2013-04-03 07:33:00,
2013-04-03 00:38:00,58.1,23.4,29.90,NNE,23,2.0,3.0,26,0.00,,---,0.00,VWS V14.01,2013-04-03 07:38:00,
2013-04-03 00:43:00,57.4,23.7,29.90,North,11,1.0,3.0,27,0.00,,---,0.00,VWS V14.01,2013-04-03 07:43:00,
2013-04-03 00:48:00,56.9,24.1,29.90,NNE,24,2.0,3.0,28,0.00,,---,0.00,VWS V14.01,2013-04-03 07:48:00,
2013-04-03 00:53:00,56.6,23.9,29.90,North,351,1.0,3.0,28,0.00,,---,0.00,VWS V14.01,2013-04-03 07:53:00,
2013-04-03 00:58:00,56.5,23.8,29.90,NNE,27,2.0,4.0,28,0.00,,---,0.00,VWS V14.01,2013-04-03 07:58:00,
2013-04-03 01:03:00,56.4,23.7,29.90,NE,51,1.0,4.0,28,0.00,,---,0.00,VWS V14.01,2013-04-03 08:03:00,
2013-04-03 01:09:00,56.3,24.5,29.91,NNE,22,1.0,3.0,29,0.00,,---,0.00,VWS V14.01,2013-04-03 08:09:00,
2013-04-03 01:14:00,56.0,24.2,29.91,NE,48,2.0,3.0,29,0.00,,---,0.00,VWS V14.01,2013-04-03 08:14:00,
2013-04-03 01:19:00,55.7,24.0,29.91,NE,40,3.0,4.0,29,0.00,,---,0.00,VWS V14.01,2013-04-03 08:19:00,
2013-04-03 01:24:00,54.9,24.1,29.91,NNE,27,3.0,4.0,30,0.00,,---,0.00,VWS V14.01,2013-04-03 08:24:00,
2013-04-03 01:29:00,54.5,24.5,29.91,NNE,23,2.0,4.0,31,0.00,,---,0.00,VWS V14.01,2013-04-03 08:29:00,
2013-04-03 01:34:00,54.6,24.6,29.91,NE,44,2.0,2.0,31,0.00,,---,0.00,VWS V14.01,2013-04-03 08:34:00,
2013-04-03 01:39:00,55.0,24.9,29.91,NE,41,2.0,3.0,31,0.00,,---,0.00,VWS V14.01,2013-04-03 08:39:00,
2013-04-03 01:44:00,54.8,24.8,29.91,North,4,2.0,3.0,31,0.00,,---,0.00,VWS V14.01,2013-04-03 08:44:00,
2013-04-03 01:49:00,54.9,24.9,29.90,NE,47,3.0,6.0,31,0.00,,---,0.00,VWS V14.01,2013-04-03 08:49:00,
2013-04-03 01:54:00,55.1,25.0,29.91,NNE,20,2.0,6.0,31,0.00,,---,0.00,VWS V14.01,2013-04-03 08:54:00,
2013-04-03 01:59:00,55.1,25.0,29.90,NE,40,1.0,6.0,31,0.00,,---,0.00,VWS V14.01,2013-04-03 08:59:00,
2013-04-03 02:04:00,55.3,25.2,29.90,NNE,18,1.0,2.0,31,0.00,,---,0.00,VWS V14.01,2013-04-03 09:04:00,
2013-04-03 02:09:00,55.1,25.0,29.90,NNE,18,1.0,2.0,31,0.00,,---,0.00,VWS V14.01,2013-04-03 09:09:00,
2013-04-03 02:14:00,55.2,25.1,29.90,NNE,12,0.0,3.0,31,0.00,,---,0.00,VWS V14.01,2013-04-03 09:14:00,
2013-04-03 02:20:00,54.8,24.8,29.90,NNE,14,2.0,3.0,31,0.00,,---,0.00,VWS V14.01,2013-04-03 09:20:00,
2013-04-03 02:25:00,54.9,25.6,29.90,North,9,0.0,3.0,32,0.00,,---,0.00,VWS V14.01,2013-04-03 09:25:00,
2013-04-03 02:30:00,54.5,25.3,29.90,NNE,22,2.0,3.0,32,0.00,,---,0.00,VWS V14.01,2013-04-03 09:30:00,
2013-04-03 02:35:00,54.5,25.3,29.90,NNE,32,3.0,3.0,32,0.00,,---,0.00,VWS V14.01,2013-04-03 09:35:00,
2013-04-03 02:40:00,54.9,25.6,29.90,NNE,20,2.0,4.0,32,0.00,,---,0.00,VWS V14.01,2013-04-03 09:40:00,
2013-04-03 02:45:00,54.7,25.4,29.90,NNE,23,1.0,4.0,32,0.00,,---,0.00,VWS V14.01,2013-04-03 09:45:00,
2013-04-03 02:50:00,55.0,25.7,29.90,NNE,18,1.0,4.0,32,0.00,,---,0.00,VWS V14.01,2013-04-03 09:50:00,
2013-04-03 02:55:00,54.7,25.4,29.90,NNE,32,2.0,4.0,32,0.00,,---,0.00,VWS V14.01,2013-04-03 09:55:00,
2013-04-03 03:00:00,55.3,25.2,29.90,NNE,33,4.0,4.0,31,0.00,,---,0.00,VWS V14.01,2013-04-03 10:00:00,
2013-04-03 03:05:00,55.9,25.7,29.90,NNE,26,2.0,3.0,31,0.00,,---,0.00,VWS V14.01,2013-04-03 10:05:00,
2013-04-03 03:10:00,55.9,25.7,29.90,NNE,29,1.0,3.0,31,0.00,,---,0.00,VWS V14.01,2013-04-03 10:10:00,
2013-04-03 03:15:00,55.6,25.5,29.89,NNE,32,1.0,3.0,31,0.00,,---,0.00,VWS V14.01,2013-04-03 10:15:00,
2013-04-03 03:20:00,55.3,25.2,29.89,NNE,20,1.0,3.0,31,0.00,,---,0.00,VWS V14.01,2013-04-03 10:20:00,
2013-04-03 03:25:00,55.0,25.7,29.89,NNE,22,2.0,3.0,32,0.00,,---,0.00,VWS V14.01,2013-04-03 10:25:00,
2013-04-03 03:30:00,54.8,25.5,29.89,NNE,25,2.0,3.0,32,0.00,,---,0.00,VWS V14.01,2013-04-03 10:30:00,
2013-04-03 03:35:00,54.5,25.3,29.89,NNE,16,2.0,2.0,32,0.00,,---,0.00,VWS V14.01,2013-04-03 10:35:00,
2013-04-03 03:40:00,54.5,26.0,29.89,NE,43,2.0,3.0,33,0.00,,---,0.00,VWS V14.01,2013-04-03 10:40:00,
2013-04-03 03:45:00,54.5,25.3,29.89,NE,39,2.0,3.0,32,0.00,,---,0.00,VWS V14.01,2013-04-03 10:45:00,
2013-04-03 03:50:00,54.5,25.3,29.89,NE,35,2.0,3.0,32,0.00,,---,0.00,VWS V14.01,2013-04-03 10:50:00,
2013-04-03 03:55:00,54.6,25.4,29.89,NNW,344,0.0,4.0,32,0.00,,---,0.00,VWS V14.01,2013-04-03 10:55:00,
2013-04-03 04:00:00,54.3,25.8,29.89,NE,42,2.0,4.0,33,0.00,,---,0.00,VWS V14.01,2013-04-03 11:00:00,
2013-04-03 04:06:00,54.6,25.4,29.89,NNE,22,0.0,3.0,32,0.00,,---,0.00,VWS V14.01,2013-04-03 11:06:00,
2013-04-03 04:11:00,53.9,25.5,29.89,NNE,20,2.0,3.0,33,0.00,,---,0.00,VWS V14.01,2013-04-03 11:11:00,
2013-04-03 04:16:00,54.3,25.8,29.89,NNE,24,2.0,3.0,33,0.00,,---,0.00,VWS V14.01,2013-04-03 11:16:00,
2013-04-03 04:21:00,54.5,25.3,29.90,NNE,18,1.0,4.0,32,0.00,,---,0.00,VWS V14.01,2013-04-03 11:21:00,
2013-04-03 04:26:00,54.0,25.6,29.90,NE,38,2.0,4.0,33,0.00,,---,0.00,VWS V14.01,2013-04-03 11:26:00,
2013-04-03 04:31:00,53.9,25.5,29.90,NE,47,2.0,4.0,33,0.00,,---,0.00,VWS V14.01,2013-04-03 11:31:00,
2013-04-03 04:36:00,54.0,25.6,29.90,North,351,0.0,3.0,33,0.00,,---,0.00,VWS V14.01,2013-04-03 11:36:00,
2013-04-03 04:41:00,53.4,25.8,29.90,NE,40,2.0,3.0,34,0.00,,---,0.00,VWS V14.01,2013-04-03 11:41:00,
2013-04-03 04:46:00,53.1,25.5,29.90,NNE,13,1.0,3.0,34,0.00,,---,0.00,VWS V14.01,2013-04-03 11:46:00,
2013-04-03 04:51:00,52.8,25.9,29.90,North,11,1.0,3.0,35,0.00,,---,0.00,VWS V14.01,2013-04-03 11:51:00,
2013-04-03 04:56:00,53.2,26.3,29.90,NNE,23,1.0,3.0,35,0.00,,---,0.00,VWS V14.01,2013-04-03 11:56:00,
2013-04-03 05:01:00,53.3,26.4,29.90,NNE,27,1.0,3.0,35,0.00,,---,0.00,VWS V14.01,2013-04-03 12:01:00,
2013-04-03 05:07:00,53.0,26.1,29.90,NNE,27,0.0,1.0,35,0.00,,---,0.00,VWS V14.01,2013-04-03 12:07:00,
2013-04-03 05:12:00,52.4,26.2,29.91,NNE,31,0.0,1.0,36,0.00,,---,0.00,VWS V14.01,2013-04-03 12:12:00,
2013-04-03 05:17:00,51.6,26.2,29.91,NNE,32,0.0,1.0,37,0.00,,---,0.00,VWS V14.01,2013-04-03 12:17:00,
2013-04-03 05:22:00,50.8,25.5,29.91,NE,38,0.0,1.0,37,0.00,,---,0.00,VWS V14.01,2013-04-03 12:22:00,
2013-04-03 05:27:00,50.0,26.0,29.91,NE,41,1.0,2.0,39,0.00,,---,0.00,VWS V14.01,2013-04-03 12:27:00,
2013-04-03 05:32:00,49.1,25.8,29.91,NE,56,0.0,2.0,40,0.00,,---,0.00,VWS V14.01,2013-04-03 12:32:00,
2013-04-03 05:37:00,48.4,25.8,29.91,NE,38,1.0,2.0,41,0.00,,---,0.00,VWS V14.01,2013-04-03 12:37:00,
2013-04-03 05:42:00,48.1,26.1,29.91,NE,37,2.0,2.0,42,0.00,,---,0.00,VWS V14.01,2013-04-03 12:42:00,
2013-04-03 05:47:00,48.0,26.0,29.91,NNE,18,1.0,2.0,42,0.00,,---,0.00,VWS V14.01,2013-04-03 12:47:00,
2013-04-03 05:52:00,48.2,26.2,29.91,NNE,29,2.0,4.0,42,0.00,,---,0.00,VWS V14.01,2013-04-03 12:52:00,
2013-04-03 05:57:00,48.8,26.2,29.91,NNE,24,3.0,5.0,41,0.00,,---,0.00,VWS V14.01,2013-04-03 12:57:00,
2013-04-03 06:02:00,49.9,26.0,29.92,North,8,2.0,6.0,39,0.00,,---,0.00,VWS V14.01,2013-04-03 13:02:00,
2013-04-03 06:07:00,50.8,26.1,29.92,NNE,18,4.0,5.0,38,0.00,,---,0.00,VWS V14.01,2013-04-03 13:07:00,
2013-04-03 06:12:00,51.4,26.7,29.92,NNE,12,2.0,5.0,38,0.00,,---,0.00,VWS V14.01,2013-04-03 13:12:00,
2013-04-03 06:17:00,51.6,26.2,29.92,North,349,0.0,5.0,37,0.00,,---,0.00,VWS V14.01,2013-04-03 13:17:00,
2013-04-03 06:23:00,51.2,26.5,29.92,North,349,0.0,5.0,38,0.00,,---,0.00,VWS V14.01,2013-04-03 13:23:00,
2013-04-03 06:28:00,50.4,26.4,29.93,North,349,0.0,5.0,39,0.00,,---,0.00,VWS V14.01,2013-04-03 13:28:00,
2013-04-03 06:33:00,50.1,27.3,29.93,NNE,20,1.0,5.0,41,0.00,,---,0.00,VWS V14.01,2013-04-03 13:33:00,
2013-04-03 06:38:00,50.8,27.4,29.93,North,1,0.0,2.0,40,0.00,,---,0.00,VWS V14.01,2013-04-03 13:38:00,
2013-04-03 06:43:00,51.1,27.6,29.93,NNE,12,0.0,2.0,40,0.00,,---,0.00,VWS V14.01,2013-04-03 13:43:00,
2013-04-03 06:48:00,52.1,28.5,29.94,North,11,0.0,2.0,40,0.00,,---,0.00,VWS V14.01,2013-04-03 13:48:00,
2013-04-03 06:53:00,53.5,29.2,29.94,North,11,0.0,2.0,39,0.00,,---,0.00,VWS V14.01,2013-04-03 13:53:00,
2013-04-03 06:58:00,54.0,28.3,29.94,NE,37,0.0,2.0,37,0.00,,---,0.00,VWS V14.01,2013-04-03 13:58:00,
2013-04-03 07:03:00,54.6,28.2,29.94,NE,41,1.0,2.0,36,0.00,,---,0.00,VWS V14.01,2013-04-03 14:03:00,
2013-04-03 07:08:00,54.3,27.9,29.94,NE,40,0.0,1.0,36,0.00,,---,0.00,VWS V14.01,2013-04-03 14:08:00,
2013-04-03 07:13:00,53.7,28.1,29.95,NE,42,3.0,4.0,37,0.00,,---,0.00,VWS V14.01,2013-04-03 14:13:00,
2013-04-03 07:18:00,53.0,28.1,29.95,NE,55,3.0,5.0,38,0.00,,---,0.00,VWS V14.01,2013-04-03 14:18:00,
2013-04-03 07:24:00,53.4,28.5,29.95,NE,40,3.0,5.0,38,0.00,,---,0.00,VWS V14.01,2013-04-03 14:24:00,
2013-04-03 07:29:00,53.7,28.1,29.95,NE,40,2.0,5.0,37,0.00,,---,0.00,VWS V14.01,2013-04-03 14:29:00,
2013-04-03 07:34:00,54.3,28.6,29.95,NE,42,1.0,2.0,37,0.00,,---,0.00,VWS V14.01,2013-04-03 14:34:00,
2013-04-03 07:39:00,55.5,29.7,29.96,North,6,0.0,4.0,37,0.00,,---,0.00,VWS V14.01,2013-04-03 14:39:00,
2013-04-03 07:44:00,56.5,29.2,29.96,ENE,76,2.0,5.0,35,0.00,,---,0.00,VWS V14.01,2013-04-03 14:44:00,
2013-04-03 07:49:00,57.4,29.3,29.96,NE,44,2.0,5.0,34,0.00,,---,0.00,VWS V14.01,2013-04-03 14:49:00,
2013-04-03 07:54:00,58.5,30.2,29.96,NNE,20,2.0,5.0,34,0.00,,---,0.00,VWS V14.01,2013-04-03 14:54:00,
2013-04-03 07:59:00,59.6,29.7,29.96,NNE,18,2.0,5.0,32,0.00,,---,0.00,VWS V14.01,2013-04-03 14:59:00,
2013-04-03 08:04:00,61.0,30.2,29.97,North,9,1.0,1.0,31,0.00,,---,0.00,VWS V14.01,2013-04-03 15:04:00,
2013-04-03 08:09:00,62.6,30.8,29.97,NNE,27,0.0,2.0,30,0.00,,---,0.00,VWS V14.01,2013-04-03 15:09:00,
2013-04-03 08:14:00,63.9,29.3,29.97,NE,44,0.0,3.0,27,0.00,,---,0.00,VWS V14.01,2013-04-03 15:14:00,
2013-04-03 08:19:00,65.2,29.5,29.97,NNE,18,0.0,3.0,26,0.00,,---,0.00,VWS V14.01,2013-04-03 15:19:00,
2013-04-03 08:24:00,66.6,28.7,29.97,North,7,1.0,3.0,24,0.00,,---,0.00,VWS V14.01,2013-04-03 15:24:00,
2013-04-03 08:30:00,67.0,28.0,29.97,NW,325,0.0,3.0,23,0.00,,---,0.00,VWS V14.01,2013-04-03 15:30:00,
2013-04-03 08:35:00,67.7,26.4,29.97,NW,323,0.0,1.0,21,0.00,,---,0.00,VWS V14.01,2013-04-03 15:35:00,
2013-04-03 08:40:00,68.1,26.7,29.97,NW,323,0.0,1.0,21,0.00,,---,0.00,VWS V14.01,2013-04-03 15:40:00,
2013-04-03 08:45:00,68.7,27.2,29.97,WSW,256,1.0,2.0,21,0.00,,---,0.00,VWS V14.01,2013-04-03 15:45:00,
2013-04-03 08:50:00,68.5,27.1,29.97,SW,219,4.0,5.0,21,0.00,,---,0.00,VWS V14.01,2013-04-03 15:50:00,
2013-04-03 08:55:00,68.5,28.2,29.97,South,191,1.0,5.0,22,0.00,,---,0.00,VWS V14.01,2013-04-03 15:55:00,
2013-04-03 09:00:00,69.2,28.8,29.97,South,184,2.0,5.0,22,0.00,,---,0.00,VWS V14.01,2013-04-03 16:00:00,
2013-04-03 09:05:00,69.4,28.9,29.97,SW,225,2.0,4.0,22,0.00,,---,0.00,VWS V14.01,2013-04-03 16:05:00,
2013-04-03 09:10:00,68.7,28.4,29.97,SSW,206,3.0,6.0,22,0.00,,---,0.00,VWS V14.01,2013-04-03 16:10:00,
2013-04-03 09:15:00,69.0,27.5,29.97,SSW,198,4.0,6.0,21,0.00,,---,0.00,VWS V14.01,2013-04-03 16:15:00,
2013-04-03 09:20:00,68.7,27.2,29.97,WSW,253,1.0,6.0,21,0.00,,---,0.00,VWS V14.01,2013-04-03 16:20:00,
2013-04-03 09:25:00,69.2,27.6,29.97,SW,222,2.0,6.0,21,0.00,,---,0.00,VWS V14.01,2013-04-03 16:25:00,
2013-04-03 09:30:00,68.9,27.4,29.97,SW,232,2.0,6.0,21,0.00,,---,0.00,VWS V14.01,2013-04-03 16:30:00,
2013-04-03 09:35:00,69.1,27.6,29.97,WSW,249,2.0,4.0,21,0.00,,---,0.00,VWS V14.01,2013-04-03 16:35:00,
2013-04-03 09:40:00,69.6,26.8,29.97,SSW,200,1.0,7.0,20,0.00,,---,0.00,VWS V14.01,2013-04-03 16:40:00,
2013-04-03 09:45:00,70.2,27.3,29.97,ESE,108,1.0,7.0,20,0.00,,---,0.00,VWS V14.01,2013-04-03 16:45:00,
2013-04-03 09:50:00,70.6,26.4,29.97,SW,217,3.0,7.0,19,0.00,,---,0.00,VWS V14.01,2013-04-03 16:50:00,
2013-04-03 09:56:00,70.3,26.1,29.98,SW,227,3.0,7.0,19,0.00,,---,0.00,VWS V14.01,2013-04-03 16:56:00,
2013-04-03 10:01:00,70.8,26.5,29.97,West,259,3.0,7.0,19,0.00,,---,0.00,VWS V14.01,2013-04-03 17:01:00,
2013-04-03 10:06:00,70.8,26.5,29.97,SW,236,5.0,6.0,19,0.00,,---,0.00,VWS V14.01,2013-04-03 17:06:00,
2013-04-03 10:11:00,71.4,27.0,29.97,SW,224,1.0,6.0,19,0.00,,---,0.00,VWS V14.01,2013-04-03 17:11:00,
2013-04-03 10:16:00,72.0,26.2,29.97,SSE,166,4.0,7.0,18,0.00,,---,0.00,VWS V14.01,2013-04-03 17:16:00,
2013-04-03 10:22:00,72.0,26.2,29.97,WSW,245,2.0,7.0,18,0.00,,---,0.00,VWS V14.01,2013-04-03 17:22:00,
2013-04-03 10:27:00,72.3,26.5,29.97,NNE,33,0.0,7.0,18,0.00,,---,0.00,VWS V14.01,2013-04-03 17:27:00,
2013-04-03 10:32:00,72.4,26.5,29.97,SW,235,6.0,7.0,18,0.00,,---,0.00,VWS V14.01,2013-04-03 17:32:00,
2013-04-03 10:37:00,72.7,26.8,29.97,West,271,1.0,6.0,18,0.00,,---,0.00,VWS V14.01,2013-04-03 17:37:00,
2013-04-03 10:42:00,72.4,25.2,29.96,West,281,2.0,8.0,17,0.00,,---,0.00,VWS V14.01,2013-04-03 17:42:00,
2013-04-03 10:47:00,72.4,26.5,29.96,ESE,113,1.0,8.0,18,0.00,,---,0.00,VWS V14.01,2013-04-03 17:47:00,
2013-04-03 10:52:00,72.7,25.4,29.96,SW,226,5.0,8.0,17,0.00,,---,0.00,VWS V14.01,2013-04-03 17:52:00,
2013-04-03 10:58:00,73.6,27.5,29.96,SSE,163,5.0,8.0,18,0.00,,---,0.00,VWS V14.01,2013-04-03 17:58:00,
2013-04-03 11:03:00,74.1,26.5,29.96,SW,222,2.0,8.0,17,0.00,,---,0.00,VWS V14.01,2013-04-03 18:03:00,
2013-04-03 11:08:00,74.2,28.0,29.96,SW,235,6.0,8.0,18,0.00,,---,0.00,VWS V14.01,2013-04-03 18:08:00,
2013-04-03 11:13:00,74.5,26.9,29.96,SSW,207,5.0,9.0,17,0.00,,---,0.00,VWS V14.01,2013-04-03 18:13:00,
2013-04-03 11:18:00,73.9,26.4,29.96,WSW,241,0.0,9.0,17,0.00,,---,0.00,VWS V14.01,2013-04-03 18:18:00,
2013-04-03 11:23:00,74.2,28.0,29.96,West,269,2.0,9.0,18,0.00,,---,0.00,VWS V14.01,2013-04-03 18:23:00,
2013-04-03 11:28:00,75.4,27.6,29.96,SSW,212,3.0,9.0,17,0.00,,---,0.00,VWS V14.01,2013-04-03 18:28:00,
2013-04-03 11:33:00,76.0,28.1,29.95,SSE,165,2.0,9.0,17,0.00,,---,0.00,VWS V14.01,2013-04-03 18:33:00,
2013-04-03 11:39:00,76.5,27.0,29.95,North,8,1.0,5.0,16,0.00,,---,0.00,VWS V14.01,2013-04-03 18:39:00,
2013-04-03 11:44:00,76.3,26.9,29.95,South,169,5.0,8.0,16,0.00,,---,0.00,VWS V14.01,2013-04-03 18:44:00,
2013-04-03 11:49:00,76.2,26.8,29.95,SE,138,5.0,8.0,16,0.00,,---,0.00,VWS V14.01,2013-04-03 18:49:00,
2013-04-03 11:54:00,75.6,26.3,29.95,South,184,2.0,8.0,16,0.00,,---,0.00,VWS V14.01,2013-04-03 18:54:00,
2013-04-03 11:59:00,75.9,29.4,29.95,SW,222,5.0,8.0,18,0.00,,---,0.00,VWS V14.01,2013-04-03 18:59:00,
2013-04-03 12:04:00,75.9,26.5,29.95,West,279,4.0,5.0,16,0.00,,---,0.00,VWS V14.01,2013-04-03 19:04:00,
2013-04-03 12:09:00,75.6,29.1,29.95,West,270,5.0,8.0,18,0.00,,---,0.00,VWS V14.01,2013-04-03 19:09:00,
2013-04-03 12:14:00,75.2,27.4,29.95,WSW,252,4.0,10.0,17,0.00,,---,0.00,VWS V14.01,2013-04-03 19:14:00,
2013-04-03 12:19:00,75.5,27.7,29.94,ENE,62,2.0,10.0,17,0.00,,---,0.00,VWS V14.01,2013-04-03 19:19:00,
2013-04-03 12:24:00,76.8,28.7,29.94,SE,127,1.0,10.0,17,0.00,,---,0.00,VWS V14.01,2013-04-03 19:24:00,
2013-04-03 12:29:00,77.3,27.7,29.94,SE,131,2.0,10.0,16,0.00,,---,0.00,VWS V14.01,2013-04-03 19:29:00,
2013-04-03 12:34:00,78.2,28.4,29.94,SW,228,3.0,5.0,16,0.00,,---,0.00,VWS V14.01,2013-04-03 19:34:00,
2013-04-03 12:39:00,78.9,27.4,29.94,WSW,250,3.0,5.0,15,0.00,,---,0.00,VWS V14.01,2013-04-03 19:39:00,
2013-04-03 12:44:00,78.8,27.3,29.93,SW,219,4.0,7.0,15,0.00,,---,0.00,VWS V14.01,2013-04-03 19:44:00,
2013-04-03 12:49:00,79.2,27.6,29.93,SW,219,3.0,7.0,15,0.00,,---,0.00,VWS V14.01,2013-04-03 19:49:00,
2013-04-03 12:55:00,78.9,28.9,29.93,SSW,212,0.0,7.0,16,0.00,,---,0.00,VWS V14.01,2013-04-03 19:55:00,
2013-04-03 13:00:00,79.6,27.9,29.92,WSW,250,7.0,7.0,15,0.00,,---,0.00,VWS V14.01,2013-04-03 20:00:00,
2013-04-03 13:05:00,79.1,27.5,29.92,West,259,3.0,5.0,15,0.00,,---,0.00,VWS V14.01,2013-04-03 20:05:00,
2013-04-03 13:10:00,78.8,27.3,29.92,WNW,287,1.0,5.0,15,0.00,,---,0.00,VWS V14.01,2013-04-03 20:10:00,
2013-04-03 13:15:00,78.7,27.2,29.92,SW,232,5.0,11.0,15,0.00,,---,0.00,VWS V14.01,2013-04-03 20:15:00,
2013-04-03 13:20:00,79.0,29.0,29.92,SW,235,6.0,11.0,16,0.00,,---,0.00,VWS V14.01,2013-04-03 20:20:00,
2013-04-03 13:25:00,78.8,27.3,29.92,SW,229,6.0,11.0,15,0.00,,---,0.00,VWS V14.01,2013-04-03 20:25:00,
2013-04-03 13:31:00,78.4,27.0,29.91,SSE,158,4.0,11.0,15,0.00,,---,0.00,VWS V14.01,2013-04-03 20:31:00,
2013-04-03 13:36:00,78.8,27.3,29.91,SSE,149,2.0,11.0,15,0.00,,---,0.00,VWS V14.01,2013-04-03 20:36:00,
2013-04-03 13:41:00,78.8,25.6,29.91,South,186,2.0,11.0,14,0.00,,---,0.00,VWS V14.01,2013-04-03 20:41:00,
2013-04-03 13:46:00,78.6,27.1,29.91,SSE,150,0.0,11.0,15,0.00,,---,0.00,VWS V14.01,2013-04-03 20:46:00,
2013-04-03 13:51:00,79.3,26.0,29.90,NE,37,0.0,11.0,14,0.00,,---,0.00,VWS V14.01,2013-04-03 20:51:00,
2013-04-03 13:56:00,80.1,26.6,29.90,West,266,1.0,11.0,14,0.00,,---,0.00,VWS V14.01,2013-04-03 20:56:00,
2013-04-03 14:02:00,80.9,27.3,29.90,North,9,3.0,11.0,14,0.00,,---,0.00,VWS V14.01,2013-04-03 21:02:00,
2013-04-03 14:07:00,81.4,27.7,29.90,WSW,257,2.0,4.0,14,0.00,,---,0.00,VWS V14.01,2013-04-03 21:07:00,
2013-04-03 14:12:00,80.5,28.6,29.90,WNW,283,11.0,11.0,15,0.00,,---,0.00,VWS V14.01,2013-04-03 21:12:00,
2013-04-03 14:17:00,79.9,28.2,29.90,West,281,3.0,13.0,15,0.00,,---,0.00,VWS V14.01,2013-04-03 21:17:00,
2013-04-03 14:22:00,79.7,28.0,29.89,West,270,1.0,13.0,15,0.00,,---,0.00,VWS V14.01,2013-04-03 21:22:00,
2013-04-03 14:27:00,80.3,28.5,29.89,West,279,10.0,13.0,15,0.00,,---,0.00,VWS V14.01,2013-04-03 21:27:00,
2013-04-03 14:32:00,80.1,28.3,29.89,West,269,4.0,13.0,15,0.00,,---,0.00,VWS V14.01,2013-04-03 21:32:00,
2013-04-03 14:37:00,80.2,26.7,29.89,West,267,6.0,11.0,14,0.00,,---,0.00,VWS V14.01,2013-04-03 21:37:00,
2013-04-03 14:42:00,80.1,26.6,29.89,WSW,252,1.0,12.0,14,0.00,,---,0.00,VWS V14.01,2013-04-03 21:42:00,
2013-04-03 14:47:00,80.3,26.8,29.89,SW,219,4.0,12.0,14,0.00,,---,0.00,VWS V14.01,2013-04-03 21:47:00,
2013-04-03 14:52:00,79.8,26.4,29.89,WSW,256,10.0,12.0,14,0.00,,---,0.00,VWS V14.01,2013-04-03 21:52:00,
2013-04-03 14:57:00,79.6,27.9,29.89,SW,221,3.0,13.0,15,0.00,,---,0.00,VWS V14.01,2013-04-03 21:57:00,
2013-04-03 15:02:00,80.1,28.3,29.89,West,274,4.0,13.0,15,0.00,,---,0.00,VWS V14.01,2013-04-03 22:02:00,
2013-04-03 15:08:00,80.5,27.0,29.89,NE,54,5.0,8.0,14,0.00,,---,0.00,VWS V14.01,2013-04-03 22:08:00,
2013-04-03 15:13:00,80.5,27.0,29.89,West,273,3.0,11.0,14,0.00,,---,0.00,VWS V14.01,2013-04-03 22:13:00,
2013-04-03 15:18:00,80.5,27.0,29.88,NW,316,4.0,11.0,14,0.00,,---,0.00,VWS V14.01,2013-04-03 22:18:00,
2013-04-03 15:23:00,80.1,26.6,29.88,West,264,10.0,12.0,14,0.00,,---,0.00,VWS V14.01,2013-04-03 22:23:00,
2013-04-03 15:28:00,80.5,27.0,29.88,West,259,4.0,12.0,14,0.00,,---,0.00,VWS V14.01,2013-04-03 22:28:00,
2013-04-03 15:33:00,80.5,27.0,29.88,West,263,4.0,12.0,14,0.00,,---,0.00,VWS V14.01,2013-04-03 22:33:00,
2013-04-03 15:38:00,80.6,25.3,29.88,West,263,7.0,13.0,13,0.00,,---,0.00,VWS V14.01,2013-04-03 22:38:00,
2013-04-03 15:43:00,80.1,26.6,29.88,West,279,8.0,13.0,14,0.00,,---,0.00,VWS V14.01,2013-04-03 22:43:00,
2013-04-03 15:48:00,80.4,25.1,29.88,North,11,2.0,13.0,13,0.00,,---,0.00,VWS V14.01,2013-04-03 22:48:00,
2013-04-03 15:53:00,80.6,27.0,29.88,West,259,10.0,13.0,14,0.00,,---,0.00,VWS V14.01,2013-04-03 22:53:00,
2013-04-03 15:58:00,79.8,24.6,29.88,WNW,289,7.0,13.0,13,0.00,,---,0.00,VWS V14.01,2013-04-03 22:58:00,
2013-04-03 16:04:00,79.2,25.9,29.88,North,5,0.0,16.0,14,0.00,,---,0.00,VWS V14.01,2013-04-03 23:04:00,
2013-04-03 16:09:00,79.5,24.4,29.88,South,191,6.0,11.0,13,0.00,,---,0.00,VWS V14.01,2013-04-03 23:09:00,
2013-04-03 16:14:00,79.7,24.5,29.88,West,274,5.0,12.0,13,0.00,,---,0.00,VWS V14.01,2013-04-03 23:14:00,
2013-04-03 16:19:00,79.9,24.7,29.88,West,267,3.0,12.0,13,0.00,,---,0.00,VWS V14.01,2013-04-03 23:19:00,
2013-04-03 16:24:00,80.0,24.8,29.88,SW,229,4.0,12.0,13,0.00,,---,0.00,VWS V14.01,2013-04-03 23:24:00,
2013-04-03 16:29:00,80.0,24.8,29.88,SSW,198,5.0,12.0,13,0.00,,---,0.00,VWS V14.01,2013-04-03 23:29:00,
2013-04-03 16:34:00,79.6,24.5,29.88,SSW,205,6.0,7.0,13,0.00,,---,0.00,VWS V14.01,2013-04-03 23:34:00,
2013-04-03 16:39:00,79.9,24.7,29.88,West,263,6.0,17.0,13,0.00,,---,0.00,VWS V14.01,2013-04-03 23:39:00,
2013-04-03 16:44:00,80.0,24.8,29.88,West,281,7.0,17.0,13,0.00,,---,0.00,VWS V14.01,2013-04-03 23:44:00,
2013-04-03 16:49:00,79.9,24.7,29.88,West,271,5.0,17.0,13,0.00,,---,0.00,VWS V14.01,2013-04-03 23:49:00,
2013-04-03 16:55:00,79.4,24.3,29.88,WSW,240,8.0,17.0,13,0.00,,---,0.00,VWS V14.01,2013-04-03 23:55:00,
2013-04-03 17:00:00,79.2,24.2,29.88,WSW,256,9.0,17.0,13,0.00,,---,0.00,VWS V14.01,2013-04-04 00:00:00,
2013-04-03 17:05:00,79.1,24.1,29.88,SW,225,2.0,11.0,13,0.00,,---,0.00,VWS V14.01,2013-04-04 00:05:00,
2013-04-03 17:10:00,79.0,24.0,29.88,NW,313,4.0,16.0,13,0.00,,---,0.00,VWS V14.01,2013-04-04 00:10:00,
2013-04-03 17:15:00,78.9,23.9,29.88,West,269,9.0,16.0,13,0.00,,---,0.00,VWS V14.01,2013-04-04 00:15:00,
2013-04-03 17:20:00,79.0,24.0,29.88,West,263,4.0,16.0,13,0.00,,---,0.00,VWS V14.01,2013-04-04 00:20:00,
2013-04-03 17:25:00,78.6,25.5,29.88,WSW,239,7.0,16.0,14,0.00,,---,0.00,VWS V14.01,2013-04-04 00:25:00,
2013-04-03 17:30:00,78.4,25.3,29.88,WSW,245,3.0,16.0,14,0.00,,---,0.00,VWS V14.01,2013-04-04 00:30:00,
2013-04-03 17:35:00,78.2,25.1,29.88,West,272,9.0,13.0,14,0.00,,---,0.00,VWS V14.01,2013-04-04 00:35:00,
2013-04-03 17:41:00,77.9,24.9,29.88,West,270,3.0,13.0,14,0.00,,---,0.00,VWS V14.01,2013-04-04 00:41:00,
2013-04-03 17:46:00,78.0,25.0,29.89,WSW,252,5.0,13.0,14,0.00,,---,0.00,VWS V14.01,2013-04-04 00:46:00,
2013-04-03 17:51:00,77.6,26.3,29.89,WSW,239,7.0,13.0,15,0.00,,---,0.00,VWS V14.01,2013-04-04 00:51:00,
2013-04-03 17:56:00,76.9,25.8,29.89,WSW,257,5.0,13.0,15,0.00,,---,0.00,VWS V14.01,2013-04-04 00:56:00,
2013-04-03 18:01:00,76.5,25.5,29.89,West,260,4.0,13.0,15,0.00,,---,0.00,VWS V14.01,2013-04-04 01:01:00,
2013-04-03 18:06:00,76.4,25.4,29.89,WSW,248,6.0,10.0,15,0.00,,---,0.00,VWS V14.01,2013-04-04 01:06:00,
2013-04-03 18:11:00,76.1,26.7,29.89,WNW,283,11.0,11.0,16,0.00,,---,0.00,VWS V14.01,2013-04-04 01:11:00,
2013-04-03 18:17:00,75.7,26.4,29.89,WSW,253,6.0,11.0,16,0.00,,---,0.00,VWS V14.01,2013-04-04 01:17:00,
2013-04-03 18:22:00,75.6,26.3,29.89,WSW,252,6.0,11.0,16,0.00,,---,0.00,VWS V14.01,2013-04-04 01:22:00,
2013-04-03 18:27:00,75.3,26.0,29.89,WNW,283,4.0,11.0,16,0.00,,---,0.00,VWS V14.01,2013-04-04 01:27:00,
2013-04-03 18:32:00,74.9,25.7,29.89,West,263,2.0,11.0,16,0.00,,---,0.00,VWS V14.01,2013-04-04 01:32:00,
2013-04-03 18:37:00,74.4,25.3,29.89,WNW,283,4.0,7.0,16,0.00,,---,0.00,VWS V14.01,2013-04-04 01:37:00,
2013-04-03 18:42:00,74.0,26.5,29.89,WSW,257,2.0,7.0,17,0.00,,---,0.00,VWS V14.01,2013-04-04 01:42:00,
2013-04-03 18:47:00,73.7,26.2,29.89,WNW,294,2.0,8.0,17,0.00,,---,0.00,VWS V14.01,2013-04-04 01:47:00,
2013-04-03 18:52:00,73.4,26.0,29.89,West,277,3.0,8.0,17,0.00,,---,0.00,VWS V14.01,2013-04-04 01:52:00,
2013-04-03 18:57:00,72.9,25.6,29.89,West,269,1.0,8.0,17,0.00,,---,0.00,VWS V14.01,2013-04-04 01:57:00,
2013-04-03 19:02:00,72.5,26.6,29.90,WNW,297,0.0,8.0,18,0.00,,---,0.00,VWS V14.01,2013-04-04 02:02:00,
2013-04-03 19:07:00,72.2,26.4,29.90,NW,308,0.0,2.0,18,0.00,,---,0.00,VWS V14.01,2013-04-04 02:07:00,
2013-04-03 19:12:00,71.6,27.2,29.90,NNE,18,0.0,2.0,19,0.00,,---,0.00,VWS V14.01,2013-04-04 02:12:00,
2013-04-03 19:17:00,71.3,27.0,29.90,NNE,15,1.0,2.0,19,0.00,,---,0.00,VWS V14.01,2013-04-04 02:17:00,
2013-04-03 19:22:00,71.0,28.0,29.90,NNE,16,0.0,2.0,20,0.00,,---,0.00,VWS V14.01,2013-04-04 02:22:00,
2013-04-03 19:27:00,70.7,27.7,29.90,NNW,344,1.0,2.0,20,0.00,,---,0.00,VWS V14.01,2013-04-04 02:27:00,
2013-04-03 19:33:00,70.4,27.5,29.91,North,360,0.0,2.0,20,0.00,,---,0.00,VWS V14.01,2013-04-04 02:33:00,
2013-04-03 19:38:00,70.0,28.3,29.91,North,355,0.0,1.0,21,0.00,,---,0.00,VWS V14.01,2013-04-04 02:38:00,
2013-04-03 19:43:00,69.4,27.8,29.91,North,356,0.0,1.0,21,0.00,,---,0.00,VWS V14.01,2013-04-04 02:43:00,
2013-04-03 19:48:00,68.9,27.4,29.91,North,355,0.0,1.0,21,0.00,,---,0.00,VWS V14.01,2013-04-04 02:48:00,
2013-04-03 19:53:00,69.0,28.6,29.91,North,357,0.0,1.0,22,0.00,,---,0.00,VWS V14.01,2013-04-04 02:53:00,
2013-04-03 19:58:00,68.8,28.4,29.91,NE,47,1.0,1.0,22,0.00,,---,0.00,VWS V14.01,2013-04-04 02:58:00,
2013-04-03 20:03:00,68.4,28.1,29.92,ENE,71,2.0,2.0,22,0.00,,---,0.00,VWS V14.01,2013-04-04 03:03:00,
2013-04-03 20:08:00,68.0,27.8,29.92,NE,49,1.0,2.0,22,0.00,,---,0.00,VWS V14.01,2013-04-04 03:08:00,
2013-04-03 20:13:00,67.5,28.4,29.92,NE,50,1.0,3.0,23,0.00,,---,0.00,VWS V14.01,2013-04-04 03:13:00,
2013-04-03 20:18:00,67.1,28.1,29.92,NE,40,3.0,3.0,23,0.00,,---,0.00,VWS V14.01,2013-04-04 03:18:00,
2013-04-03 20:23:00,67.0,28.0,29.92,NE,37,1.0,4.0,23,0.00,,---,0.00,VWS V14.01,2013-04-04 03:23:00,
2013-04-03 20:28:00,67.0,28.0,29.92,NNE,30,1.0,4.0,23,0.00,,---,0.00,VWS V14.01,2013-04-04 03:28:00,
2013-04-03 20:33:00,66.8,27.8,29.93,NE,46,1.0,4.0,23,0.00,,---,0.00,VWS V14.01,2013-04-04 03:33:00,
2013-04-03 20:38:00,66.6,27.7,29.93,NNE,27,1.0,3.0,23,0.00,,---,0.00,VWS V14.01,2013-04-04 03:38:00,
2013-04-03 20:44:00,66.4,27.5,29.93,NNE,18,1.0,3.0,23,0.00,,---,0.00,VWS V14.01,2013-04-04 03:44:00,
2013-04-03 20:49:00,66.2,27.3,29.94,NE,34,1.0,3.0,23,0.00,,---,0.00,VWS V14.01,2013-04-04 03:49:00,
2013-04-03 20:54:00,66.0,28.2,29.94,NNE,15,2.0,3.0,24,0.00,,---,0.00,VWS V14.01,2013-04-04 03:54:00,
2013-04-03 20:59:00,65.8,28.0,29.94,NNE,12,2.0,4.0,24,0.00,,---,0.00,VWS V14.01,2013-04-04 03:59:00,
2013-04-03 21:00:00,65.8,28.0,29.94,NNE,30,2.0,4.0,24,0.00,,---,0.00,VWS V14.01,2013-04-04 04:00:00,
2013-04-03 21:05:00,65.6,27.9,29.94,NNE,27,0.0,1.0,24,0.00,,---,0.00,VWS V14.01,2013-04-04 04:05:00,
2013-04-03 21:10:00,65.2,28.5,29.94,NNE,27,0.0,1.0,25,0.00,,---,0.00,VWS V14.01,2013-04-04 04:10:00,
2013-04-03 21:16:00,64.9,28.3,29.94,NNE,15,2.0,3.0,25,0.00,,---,0.00,VWS V14.01,2013-04-04 04:16:00,
2013-04-03 21:21:00,64.6,28.0,29.94,NNE,13,3.0,4.0,25,0.00,,---,0.00,VWS V14.01,2013-04-04 04:21:00,
2013-04-03 21:26:00,64.4,27.8,29.94,NNE,23,1.0,4.0,25,0.00,,---,0.00,VWS V14.01,2013-04-04 04:26:00,
2013-04-03 21:31:00,64.2,27.7,29.95,NE,34,1.0,4.0,25,0.00,,---,0.00,VWS V14.01,2013-04-04 04:31:00,
2013-04-03 21:36:00,64.0,28.5,29.95,NNE,19,1.0,3.0,26,0.00,,---,0.00,VWS V14.01,2013-04-04 04:36:00,
2013-04-03 21:41:00,64.0,28.5,29.95,NNE,25,3.0,4.0,26,0.00,,---,0.00,VWS V14.01,2013-04-04 04:41:00,
2013-04-03 21:47:00,63.9,28.4,29.95,NNE,27,2.0,5.0,26,0.00,,---,0.00,VWS V14.01,2013-04-04 04:47:00,
2013-04-03 21:52:00,63.6,28.1,29.95,North,358,1.0,5.0,26,0.00,,---,0.00,VWS V14.01,2013-04-04 04:52:00,
2013-04-03 21:57:00,63.3,27.9,29.95,NNE,20,3.0,5.0,26,0.00,,---,0.00,VWS V14.01,2013-04-04 04:57:00,
2013-04-03 22:02:00,63.3,28.8,29.96,NE,34,3.0,6.0,27,0.00,,---,0.00,VWS V14.01,2013-04-04 05:02:00,
2013-04-03 22:07:00,63.4,27.9,29.96,NE,34,2.0,5.0,26,0.00,,---,0.00,VWS V14.01,2013-04-04 05:07:00,
2013-04-03 22:12:00,63.6,28.1,29.96,NE,40,4.0,5.0,26,0.00,,---,0.00,VWS V14.01,2013-04-04 05:12:00,
2013-04-03 22:17:00,63.7,28.2,29.96,NNE,29,3.0,6.0,26,0.00,,---,0.00,VWS V14.01,2013-04-04 05:17:00,
2013-04-03 22:22:00,63.6,28.1,29.96,NNE,22,3.0,6.0,26,0.00,,---,0.00,VWS V14.01,2013-04-04 05:22:00,
2013-04-03 22:28:00,63.5,28.0,29.96,NNE,18,4.0,6.0,26,0.00,,---,0.00,VWS V14.01,2013-04-04 05:28:00,
2013-04-03 22:33:00,63.4,27.9,29.96,NNE,12,2.0,6.0,26,0.00,,---,0.00,VWS V14.01,2013-04-04 05:33:00,
2013-04-03 22:38:00,63.0,28.5,29.96,NNE,18,4.0,5.0,27,0.00,,---,0.00,VWS V14.01,2013-04-04 05:38:00,
2013-04-03 22:43:00,62.8,28.4,29.96,NNE,33,2.0,5.0,27,0.00,,---,0.00,VWS V14.01,2013-04-04 05:43:00,
2013-04-03 22:48:00,62.6,28.2,29.96,NNE,23,4.0,5.0,27,0.00,,---,0.00,VWS V14.01,2013-04-04 05:48:00,
2013-04-03 22:53:00,62.3,27.9,29.96,NE,34,4.0,6.0,27,0.00,,---,0.00,VWS V14.01,2013-04-04 05:53:00,
2013-04-03 22:58:00,62.1,27.8,29.96,NNE,27,4.0,6.0,27,0.00,,---,0.00,VWS V14.01,2013-04-04 05:58:00,
2013-04-03 23:03:00,61.8,28.4,29.96,NNE,13,4.0,6.0,28,0.00,,---,0.00,VWS V14.01,2013-04-04 06:03:00,
2013-04-03 23:08:00,61.8,28.4,29.96,NNE,25,5.0,6.0,28,0.00,,---,0.00,VWS V14.01,2013-04-04 06:08:00,
2013-04-03 23:13:00,61.7,28.3,29.96,NNE,13,3.0,6.0,28,0.00,,---,0.00,VWS V14.01,2013-04-04 06:13:00,
2013-04-03 23:18:00,61.6,28.2,29.96,NNE,13,3.0,7.0,28,0.00,,---,0.00,VWS V14.01,2013-04-04 06:18:00,
2013-04-03 23:23:00,61.5,28.1,29.96,NNE,18,5.0,7.0,28,0.00,,---,0.00,VWS V14.01,2013-04-04 06:23:00,
2013-04-03 23:28:00,61.5,28.1,29.96,NNE,18,4.0,7.0,28,0.00,,---,0.00,VWS V14.01,2013-04-04 06:28:00,
2013-04-03 23:33:00,61.5,28.1,29.97,NE,34,2.0,7.0,28,0.00,,---,0.00,VWS V14.01,2013-04-04 06:33:00,
2013-04-03 23:39:00,61.2,27.9,29.97,NE,42,3.0,4.0,28,0.00,,---,0.00,VWS V14.01,2013-04-04 06:39:00,
2013-04-03 23:44:00,60.8,28.4,29.97,NE,35,3.0,4.0,29,0.00,,---,0.00,VWS V14.01,2013-04-04 06:44:00,
2013-04-03 23:49:00,60.2,27.9,29.97,NNE,18,3.0,4.0,29,0.00,,---,0.00,VWS V14.01,2013-04-04 06:49:00,
2013-04-03 23:54:00,59.8,28.3,29.97,North,8,5.0,6.0,30,0.00,,---,0.00,VWS V14.01,2013-04-04 06:54:00,
2013-04-03 23:59:00,59.7,28.2,29.97,NNE,27,2.0,6.0,30,0.00,,---,0.00,VWS V14.01,2013-04-04 06:59:00,